GW3419 Weather Reports


time (UTC)temp
F
wind
direction
speed
knots
gust
knots
rain 1hr
in
rain 24hr
in
rain mn
in
humidity
%
barometer
mb
20260504035220 55 210 2.6 2.6 0.00 0.00 0.00 47 999.4
20260504034717 55 221 1.7 2.6 0.00 0.00 0.00 46 999.6
20260504034214 56 251 0.9 2.6 0.00 0.00 0.00 46 999.7
20260504033712 56 233 0.9 3.5 0.00 0.00 0.00 46 999.7
20260504033209 55 243 0.9 3.5 0.00 0.00 0.00 46 999.7
20260504032706 55 213 1.7 2.6 0.00 0.00 0.00 48 999.7
20260504032203 56 233 0.0 2.6 0.00 0.00 0.00 47 999.9
20260504031659 56 241 1.7 3.5 0.00 0.00 0.00 45 999.8
20260504031156 55 249 0.9 2.6 0.00 0.00 0.00 46 999.8
20260504030652 55 224 1.7 2.6 0.00 0.00 0.00 48 999.9
20260504030150 56 216 1.7 2.6 0.00 0.00 0.00 45 999.7
20260504025646 56 221 1.7 2.6 0.00 0.00 0.00 45 1000.0
20260504025143 56 224 0.0 1.7 0.00 0.00 0.00 46 1000.0
20260504024640 56 231 0.9 1.7 0.00 0.00 0.00 45 999.9
20260504024136 57 220 0.9 2.6 0.00 0.00 0.00 44 999.9
20260504023633 57 224 1.7 1.7 0.00 0.00 0.00 43 999.8
20260504023130 57 218 0.0 1.7 0.00 0.00 0.00 44 999.9
20260504022626 57 194 0.9 1.7 0.00 0.00 0.00 44 999.8
20260504022121 56 209 0.0 1.7 0.00 0.00 0.00 47 999.8
20260504021620 55 210 0.0 1.7 0.00 0.00 0.00 46 999.9
20260504021116 56 202 0.0 1.7 0.00 0.00 0.00 47 1000.0
20260504020614 56 229 0.9 1.7 0.00 0.00 0.00 47 1000.0
20260504020109 56 240 0.0 0.0 0.00 0.00 0.00 45 999.9
20260504015606 56 309 0.0 0.0 0.00 0.00 0.00 47 999.8
20260504015102 56 309 0.0 0.0 0.00 0.00 0.00 46 1000.0
20260504014558 57 304 0.0 0.9 0.00 0.00 0.00 45 999.9
20260504014056 58 235 0.0 1.7 0.00 0.00 0.00 44 999.9
20260504013553 58 169 0.0 0.9 0.00 0.00 0.00 46 999.8
20260504013050 59 326 0.0 1.7 0.00 0.00 0.00 44 999.8
20260504012547 59 157 0.0 0.9 0.00 0.00 0.00 42 999.9
20260504012045 60 66 0.0 2.6 0.00 0.00 0.00 43 999.8
20260504011542 61 41 0.0 2.6 0.00 0.00 0.00 41 999.9
20260504011038 61 343 0.9 2.6 0.00 0.00 0.00 40 999.9
20260504010533 62 326 0.0 2.6 0.00 0.00 0.00 40 999.9
20260504010030 62 72 0.0 2.6 0.00 0.00 0.00 38 999.7
20260504005527 63 104 0.0 2.6 0.00 0.00 0.00 37 999.6
20260504005024 64 119 0.0 2.6 0.00 0.00 0.00 36 999.7
20260504004522 65 264 0.9 4.3 0.00 0.00 0.00 34 999.5
20260504004019 65 108 0.0 7.0 0.00 0.00 0.00 34 999.7
20260504003515 65 331 0.9 5.2 0.00 0.00 0.00 34 1000.0
20260504003012 66 295 2.6 7.0 0.00 0.00 0.00 32 999.8
20260504002509 66 250 2.6 7.0 0.00 0.00 0.00 32 999.9
20260504002006 67 287 5.2 8.7 0.00 0.00 0.00 30 999.9
20260504001503 68 289 3.5 7.0 0.00 0.00 0.00 30 999.9
20260504001000 68 348 3.5 8.7 0.00 0.00 0.00 30 1000.0
20260504000457 67 314 2.6 8.7 0.00 0.00 0.00 31 999.9
20260503235954 67 337 8.7 11.3 0.00 0.00 0.00 30 999.9
20260503235452 68 292 6.1 13.9 0.00 0.00 0.00 30 999.6
20260503234949 68 199 2.6 10.4 0.00 0.00 0.00 31 999.8
20260503234446 68 279 3.5 9.6 0.00 0.00 0.00 30 999.8
20260503233945 68 333 5.2 10.4 0.00 0.00 0.00 29 999.8
20260503233440 68 340 3.5 10.4 0.00 0.00 0.00 31 999.9
20260503232937 69 333 2.6 8.7 0.00 0.00 0.00 29 999.8
20260503232434 69 264 2.6 13.0 0.00 0.00 0.00 29 1000.1
20260503231932 70 12 1.7 11.3 0.00 0.00 0.00 29 999.9
20260503231429 69 332 3.5 12.2 0.00 0.00 0.00 29 999.9
20260503230926 70 298 11.3 14.8 0.00 0.00 0.00 28 1000.1
20260503230422 70 255 3.5 14.8 0.00 0.00 0.00 28 999.8
20260503225920 70 359 4.3 13.9 0.00 0.00 0.00 28 999.9
20260503225416 71 344 8.7 12.2 0.00 0.00 0.00 29 999.9
20260503224912 71 293 3.5 9.6 0.00 0.00 0.00 28 999.8
20260503224409 71 305 4.3 13.9 0.00 0.00 0.00 30 999.9
20260503223907 70 81 1.7 13.9 0.00 0.00 0.00 31 999.8
20260503223405 71 296 3.5 9.6 0.00 0.00 0.00 30 999.8
20260503222900 71 339 4.3 19.1 0.00 0.00 0.00 31 999.9
20260503222359 72 287 3.5 6.1 0.00 0.00 0.00 30 999.9
20260503221856 71 321 6.1 10.4 0.00 0.00 0.00 30 999.8
20260503221355 71 42 5.2 13.0 0.00 0.00 0.00 30 999.7
20260503220850 71 331 3.5 9.6 0.00 0.00 0.00 30 999.7
20260503220347 71 211 1.7 9.6 0.00 0.00 0.00 31 999.6
20260503215844 71 329 4.3 13.9 0.00 0.00 0.00 31 999.9
20260503215342 72 318 2.6 14.8 0.00 0.00 0.00 31 999.6
20260503214839 71 235 0.0 11.3 0.00 0.00 0.00 32 999.7
20260503214336 71 202 2.6 17.4 0.00 0.00 0.00 31 999.8
20260503213833 71 8 5.2 13.9 0.00 0.00 0.00 33 999.6
20260503213331 71 322 2.6 11.3 0.00 0.00 0.00 34 999.5
20260503212828 71 325 6.1 17.4 0.00 0.00 0.00 33 999.7
20260503212326 71 277 8.7 12.2 0.00 0.00 0.00 34 999.8
20260503211823 72 311 3.5 11.3 0.00 0.00 0.00 34 999.9
20260503211319 71 293 1.7 7.8 0.00 0.00 0.00 35 999.9
20260503210819 71 312 9.6 10.4 0.00 0.00 0.00 33 999.9
20260503210317 72 27 4.3 14.8 0.00 0.00 0.00 34 999.9
20260503205812 71 324 4.3 13.9 0.00 0.00 0.00 34 1000.1
20260503205309 72 45 1.7 6.1 0.00 0.00 0.00 34 1000.1
20260503204805 71 323 5.2 9.6 0.00 0.00 0.00 32 1000.2
20260503204303 72 266 2.6 11.3 0.00 0.00 0.00 33 1000.4
20260503203800 71 64 3.5 9.6 0.00 0.00 0.00 33 1000.2
20260503203257 71 319 3.5 12.2 0.00 0.00 0.00 33 1000.3
20260503202754 72 319 7.8 14.8 0.00 0.00 0.00 33 1000.2
20260503202252 71 332 5.2 18.2 0.00 0.00 0.00 33 1000.2
20260503201744 71 340 2.6 12.2 0.00 0.00 0.00 34 1000.3
20260503201241 70 346 5.2 9.6 0.00 0.00 0.00 35 1000.2
20260503200738 71 38 2.6 7.0 0.00 0.00 0.00 35 1000.4
20260503200234 70 11 5.2 8.7 0.00 0.00 0.00 34 1000.5
20260503195731 70 18 6.1 13.0 0.00 0.00 0.00 33 1000.3
20260503195228 71 17 4.3 12.2 0.00 0.00 0.00 32 1000.3
20260503194726 71 299 6.1 11.3 0.00 0.00 0.00 34 1000.3
20260503194221 71 307 3.5 13.0 0.00 0.00 0.00 33 1000.3
20260503193717 70 91 2.6 18.2 0.00 0.00 0.00 35 1000.4
20260503193214 69 286 2.6 10.4 0.00 0.00 0.00 36 1000.4
20260503192709 69 31 6.1 16.5 0.00 0.00 0.00 37 1000.4
20260503192205 71 293 4.3 11.3 0.00 0.00 0.00 35 1000.6
20260503191702 70 321 7.8 11.3 0.00 0.00 0.00 33 1000.5
20260503191159 70 302 4.3 13.0 0.00 0.00 0.00 31 1000.7
20260503190656 70 308 5.2 12.2 0.00 0.00 0.00 34 1000.6
20260503190152 70 10 4.3 14.8 0.00 0.00 0.00 34 1000.5
20260503185649 71 273 1.7 7.8 0.00 0.00 0.00 35 1000.5
20260503185144 69 140 2.6 9.6 0.00 0.00 0.00 40 1000.7
20260503184634 69 42 5.2 15.6 0.00 0.00 0.00 39 1000.6
20260503184130 69 298 2.6 10.4 0.00 0.00 0.00 39 1000.7
20260503183627 69 345 5.2 12.2 0.00 0.00 0.00 39 1000.6
20260503183124 68 326 5.2 12.2 0.00 0.00 0.00 41 1000.4
20260503182622 68 8 4.3 8.7 0.00 0.00 0.00 42 1000.8
20260503182121 68 28 5.2 13.0 0.00 0.00 0.00 42 1000.7
20260503181617 68 354 3.5 7.8 0.00 0.00 0.00 44 1001.0
20260503181114 68 326 4.3 12.2 0.00 0.00 0.00 41 1000.9
20260503180611 68 324 3.5 7.8 0.00 0.00 0.00 40 1000.8
20260503180109 68 311 3.5 8.7 0.00 0.00 0.00 42 1000.9
20260503175605 68 186 2.6 13.0 0.00 0.00 0.00 45 1001.1
20260503175103 67 326 7.8 13.9 0.00 0.00 0.00 40 1000.8
20260503174559 68 281 2.6 6.1 0.00 0.00 0.00 41 1000.9
20260503174056 67 323 2.6 11.3 0.00 0.00 0.00 42 1001.1
20260503173551 67 18 6.1 13.0 0.00 0.00 0.00 41 1001.0
20260503173048 67 0 3.5 10.4 0.00 0.00 0.00 42 1000.9
20260503172545 66 316 4.3 8.7 0.00 0.00 0.00 44 1000.8
20260503172042 66 10 6.1 10.4 0.00 0.00 0.00 43 1000.9
20260503171538 66 301 2.6 13.0 0.00 0.00 0.00 43 1001.2
20260503171036 66 312 4.3 8.7 0.00 0.00 0.00 44 1001.0
20260503170532 66 307 6.1 13.9 0.00 0.00 0.00 45 1001.0
20260503150925 64 248 1.7 6.1 0.00 0.00 0.00 43 1000.9
20260503150421 64 349 3.5 6.1 0.00 0.00 0.00 42 1001.0
20260503131314 57 204 4.3 10.4 0.00 0.00 0.00 51 1000.8
20260503130812 56 247 7.0 9.6 0.00 0.00 0.00 50 1001.2
20260503130309 55 244 6.1 13.0 0.00 0.00 0.00 51 1001.1
20260503110703 53 223 2.6 13.0 0.00 0.00 0.00 57 1000.9
20260503110200 53 211 11.3 11.3 0.00 0.00 0.00 58 1000.9
20260503100121 53 200 9.6 10.4 0.00 0.00 0.00 53 1001.5
20260503081503 53 251 1.7 7.8 0.00 0.00 0.00 54 1003.4
20260503081000 53 234 3.5 7.0 0.00 0.00 0.00 53 1003.5
20260503080451 54 229 4.3 13.0 0.00 0.00 0.00 51 1003.6
20260503072928 53 236 3.5 7.8 0.00 0.00 0.00 52 1003.6
20260503072425 53 219 4.3 10.4 0.00 0.00 0.00 51 1003.6
20260503071922 53 221 3.5 9.6 0.00 0.00 0.00 52 1003.5
20260503071419 52 227 3.5 7.8 0.00 0.00 0.00 53 1003.7
20260503070915 52 230 3.5 7.0 0.00 0.00 0.00 52 1003.9
20260503070413 52 221 4.3 7.0 0.00 0.00 0.00 53 1003.9
20260503060338 54 214 6.1 9.6 0.00 0.00 0.00 50 1004.6
20260503054826 55 209 9.6 9.6 0.00 0.00 0.00 50 1004.7
20260503054322 55 236 2.6 7.8 0.00 0.00 0.00 51 1004.8
20260503053820 55 214 3.5 7.8 0.00 0.00 0.00 50 1004.6
20260503053318 55 218 3.5 7.0 0.00 0.00 0.00 50 1004.9
20260503052814 55 209 3.5 6.1 0.00 0.00 0.00 50 1004.9
20260503052311 55 219 4.3 7.0 0.00 0.00 0.00 49 1005.0
20260503051807 55 223 2.6 4.3 0.00 0.00 0.00 51 1005.0
20260503051304 55 196 4.3 7.8 0.00 0.00 0.00 51 1005.1
20260503050800 55 221 4.3 7.0 0.00 0.00 0.00 51 1005.0
20260503050257 55 201 5.2 8.7 0.00 0.00 0.00 51 1005.1
20260503045754 55 199 4.3 7.0 0.00 0.00 0.00 51 1005.2
20260503045252 55 217 3.5 7.8 0.00 0.00 0.00 52 1005.2
20260503044748 55 198 5.2 5.2 0.00 0.00 0.00 52 1005.5
20260503044245 55 208 3.5 6.1 0.00 0.00 0.00 51 1005.4
20260503043743 55 209 4.3 5.2 0.00 0.00 0.00 52 1005.5
20260503043240 55 195 3.5 4.3 0.00 0.00 0.00 52 1005.6
20260503042735 55 221 2.6 4.3 0.00 0.00 0.00 52 1005.6
20260503042232 55 215 3.5 6.1 0.00 0.00 0.00 52 1005.6
20260503041728 55 209 3.5 4.3 0.00 0.00 0.00 52 1005.5
20260503041226 55 201 2.6 4.3 0.00 0.00 0.00 53 1006.0
20260503040723 55 215 2.6 3.5 0.00 0.00 0.00 50 1005.9
20260503040220 55 214 1.7 3.5 0.00 0.00 0.00 51 1006.0
20260503035717 55 216 1.7 3.5 0.00 0.00 0.00 51 1006.2